Showing default

MEZNSAT, 46489

Orbit data source: Space-Track

MEZNSAT, 46489 is an Emirian payload satellite in SSO that was launched on Mon, 28 Sep 2020 UTC via a SOYUZ-2-1B launch vehicle from the Plesetsk Missile And Space Complex (PKMTR). Payloads include a variety of satellites, spacecraft, and rockets equipped with specific instruments for various scientific and technological missions. These include communications satellites like Starlink; space stations such as the ISS; scientific satellites like the Hubble; Earth observation satellites from companies like Planet Labs, Umbra, and HawkEye 360; GPS; miniature CubeSats for education and research; and military/defense satellites.

Loading next visibility...
MEZNSAT details
Identifier
46489, 2020-068D
Orbit
SSO
Last TLE update15 hours ago
Origin
Flag of AEAURAK/MASDAR (AE / UAE)
ManufacturerMASDAR/AURAK
MissionOperational Amateur Science
Bus & MotorCUBESAT 3U, Unknown motor
Mass5 kg wet, 5 kg dry
Launch date (UTC)
2020-09-28 (4 years ago)
Launch vehicle
SOYUZ-2-1B
Launch site
Plesetsk Missile And Space Complex (PKMTR)
Object type
Payload
Rocket body
Debris
Shape & HBRBox, Unknown HBR
Radar Cross Section0.035 m², Small (<0.1 m²)

Expand to show TLE details & history

TLE from 15 hours ago
0 MEZNSAT
1 46489U 20068D   24360.90793438  .00085359  00000-0  15875-2 0  9993
2 46489  97.8239 338.4803 0007425   9.1324 351.0059 15.48552678234190
Epoch: 2024-12-25T21:47Z
Definitive object data (Epoch: 2024-12-25T21:47:25.53Z)
Latitude-0.00002°
Longitude-83.27101°
Altitude419.088 km
Speed7.662 km/s
True Right ascension22h 33m 55s
True Declination0° 00' 00"
Sunlit
Object was in daylight at TLE epoch
Visualization TLE readout
Latitude-60.63817°
Longitude-68.5265°
Altitude442.142 km
Speed7.646 km/s
Apparent Right ascension00h 03m 02s
Apparent Declination-50° 37' 05"
Sunlit
Object is in daylight
Visualization observer readout
Local Sidereal Time12:23:37
Azimuth163.098° S
Elevation-78.708°
Doppler factor1
Orbital elements
Apogee altitude422.952 km
Perigee altitude412.86 km
Semi-major axis6,796.043 km
Eccentricity0.0007425
Inclination97.8239°
RAAN338.4803°
Arg. of periapsis9.1324°
True anomaly350.99259°
Mean anomaly351.0059°
Eccentric anomaly350.99924°
Mean motion3.87399 °/min
BSTAR0.0015875
Orbital period92.93 mins
Loading maneuver chart data...
Loading historical data...
Loading historical data...
Loading historical data...
Loading historical data...
Loading historical data...
Loading historical data...
Loading historical data...

MEZNSAT Visibility forecast

Observer location: undefined°, undefined

Span
Click to sort rows by Start time (UTC) header in descending order
Start Az.
Max El. time (UTC)
Max El. Az.
Max El.
End time (UTC)
End Az.
5 mins2024-12-26 22:44:00.935Z163.775° S2024-12-26 22:47:00.935Z0.455° NNE41.478°2024-12-26 22:49:00.935Z349.654° N
4 mins2024-12-27 11:35:00.935Z21.347° NNE2024-12-27 11:37:00.935Z164.4° S40.634°2024-12-27 11:39:00.935Z186.745° SSW
|